Wind_Speed
3 3 2 2 2 2 2 2 3 2 3 3 3 3 2 2 2 2 3 3 3 3 3 3 3 3 3 3 3 3 3 4 4 4 4 4 4 4 4 4 4 4 4
4 4 3 3 3 4 3 3 3 4 4 4 5 5 4 4 3 4 4 5 5 5 4 4 4 4 4 4 4 4 5 5 5 5 5 5 5 5 5 5 5 5 5
5 5 4 4 4 4 4 4 4 5 5 6 6 6 5 5 5 5 5 6 6 6 6 6 5 5 5 6 6 6 6 6 7 7 7 7 7 7 6 6 6 7 7
6 5 5 5 4 4 5 5 5 5 6 6 6 7 6 6 6 6 6 6 7 6 6 6 6 6 7 7 8 8 8 8 8 8 8 8 8 8 8 8 8 8 8
7 6 6 6 5 6 5 6 6 6 6 6 7 7 7 7 7 7 7 7 7 7 7 7 7 7 8 8 9 9 9 9 9 9 9 9 9 9 9 9 9 9 10
8 8 8 7 7 7 7 7 7 7 7 7 7 7 7 7 7 8 8 8 8 8 8 8 9 8 8 8 9 10 9 9 9 9 9 8 9 9 10 10 9 10 11
9 9 9 8 8 9 9 8 8 8 8 8 8 7 8 8 8 8 8 8 8 9 9 9 9 9 9 9 10 10 9 9 9 9 9 9 9 9 10 10 10 11 11
8 8 8 9 9 9 10 9 9 9 9 9 9 9 9 9 9 9 9 9 9 9 9 9 9 10 10 10 10 10 9 9 9 9 9 9 10 10 10 11 12 11 11
9 9 9 9 9 9 9 10 10 10 10 10 10 10 10 10 10 9 9 9 9 9 9 9 9 10 10 9 9 9 9 10 10 10 10 10 10 10 10 11 11 11 11
10 10 9 10 10 11 11 11 12 12 12 11 12 12 11 11 11 11 10 9 9 9 10 10 10 9 9 9 10 10 10 10 10 9 10 11 11 11 11 11 11 11 11
11 10 10 11 11 11 11 12 13 13 13 12 13 13 13 12 11 11 10 10 9 9 10 10 10 10 10 10 10 10 10 10 10 10 10 10 10 11 10 10 10 11 11
11 11 11 11 12 12 13 13 13 13 14 13 13 12 12 12 11 11 10 10 10 10 10 10 10 11 11 11 11 10 10 10 10 11 11 10 11 11 10 10 10 10 11
11 12 12 13 13 13 13 14 14 14 13 12 12 12 12 12 12 11 11 11 11 10 10 11 11 11 11 12 11 11 11 11 11 11 11 11 11 11 11 11 10 10 10
11 12 13 13 14 14 14 14 14 15 14 13 13 13 13 13 12 12 12 12 12 11 11 11 12 12 12 12 12 11 11 11 11 11 11 11 11 11 11 11 11 11 11
12 13 13 13 14 14 15 15 15 15 14 14 14 14 13 13 13 13 13 12 12 12 12 12 12 12 12 12 12 11 12 12 11 11 11 12 12 11 11 11 11 11 11
13 13 13 14 14 15 15 15 15 15 15 15 14 14 14 14 14 14 13 13 13 13 13 12 13 13 12 12 12 11 11 12 12 12 12 12 12 12 13 12 12 12 12
13 14 14 14 15 15 15 15 15 15 14 14 14 14 14 14 14 14 14 13 14 14 13 13 13 13 13 12 12 12 12 12 12 12 12 12 12 12 12 12 12 12 11
14 14 14 15 15 16 16 16 16 15 14 14 14 14 14 14 14 14 14 14 15 15 14 15 14 14 14 13 13 13 13 13 13 12 12 12 12 12 12 12 13 12 13
15 15 15 15 15 15 16 16 15 15 14 14 14 14 14 14 14 14 14 14 14 15 15 16 15 14 14 13 14 14 13 13 13 13 13 12 12 12 12 13 13 13 14
15 15 15 15 15 15 15 15 14 13 14 14 14 14 14 14 14 15 15 15 15 16 16 16 15 14 14 13 13 14 13 13 13 13 13 12 12 12 13 13 13 14 14
15 15 16 15 15 14 14 14 13 13 13 13 14 13 14 14 14 15 15 16 16 16 16 16 15 15 15 14 14 14 14 13 13 13 13 13 13 14 14 14 14 14 15
15 15 15 15 15 15 14 14 13 13 13 14 14 14 15 15 14 14 15 15 16 16 16 15 15 15 14 14 14 14 15 14 14 14 14 14 14 14 14 14 14 14 15
16 16 15 15 15 15 14 14 14 14 14 15 15 15 15 15 15 15 15 15 15 15 15 15 15 14 15 14 14 14 15 15 15 15 14 15 15 15 14 15 15 15 14
17 16 16 16 16 15 15 15 15 15 15 15 15 16 16 16 16 16 15 15 15 15 15 15 15 15 16 16 15 14 15 16 15 15 15 15 15 15 15 15 15 15 15
17 17 16 16 16 16 15 15 16 16 16 16 16 16 17 17 17 16 16 16 16 15 15 15 16 16 16 16 16 16 16 16 16 16 15 15 15 16 16 16 16 15 15
17 17 17 17 17 17 17 16 17 17 17 16 16 16 17 17 17 16 16 16 16 16 16 16 16 16 16 16 17 17 17 17 17 16 16 16 15 16 16 16 16 16 16
Wind_Direction
263 271 272 266 252 254 245 240 250 266 273 278 282 283 279 283 284 280 282 273 272 277 281 281 283 281 288 292 293 288 283 298 296 291 289 279 269 268 268 258 254 263 272
266 269 273 269 263 259 257 258 268 275 280 282 285 289 279 280 283 280 278 275 275 272 272 278 279 283 285 288 287 290 285 292 292 289 284 284 276 269 265 267 260 258 263
268 267 274 277 270 265 269 263 270 272 277 280 284 286 279 278 284 281 273 276 276 272 269 274 276 283 285 284 281 280 283 287 286 284 280 279 278 271 266 267 268 262 265
275 276 279 281 276 275 280 275 277 280 280 283 287 286 279 273 276 278 278 277 274 268 265 271 275 277 280 282 282 281 282 283 283 284 279 278 278 271 269 270 272 268 268
281 280 281 280 278 275 277 282 281 284 284 288 292 294 287 282 277 277 280 275 275 270 267 271 276 277 278 279 282 282 282 279 279 281 280 278 279 276 271 273 274 272 271
283 281 281 279 278 281 280 284 280 281 284 289 293 295 293 289 282 282 281 278 275 278 275 275 278 281 277 279 281 280 280 278 277 277 278 277 277 277 272 272 272 272 271
280 279 279 279 278 280 282 281 279 281 284 287 291 292 293 293 288 284 280 279 278 280 277 275 278 280 279 282 284 280 279 280 280 278 278 276 276 278 274 273 275 275 271
282 280 279 277 279 280 281 276 278 284 286 287 289 289 289 288 289 286 283 280 278 277 277 277 277 279 282 285 282 281 279 278 279 278 277 276 278 278 277 274 276 275 270
283 279 278 280 281 282 280 278 281 283 285 286 286 286 284 284 286 285 283 279 277 278 280 279 279 279 281 286 283 280 279 278 277 278 277 276 282 283 283 280 277 274 272
284 280 278 279 281 281 279 279 281 283 284 286 284 282 282 283 284 283 278 278 277 279 280 279 278 282 285 287 286 284 281 280 280 280 279 279 281 281 282 284 282 275 273
283 283 281 280 281 283 281 280 281 282 283 283 282 281 282 282 282 283 277 276 276 279 279 279 280 284 285 286 285 286 285 283 283 284 285 284 282 282 283 285 283 279 277
282 284 284 285 286 287 286 284 286 283 280 281 281 279 279 280 279 278 275 277 279 279 281 281 280 284 287 286 285 285 285 286 284 283 283 282 281 282 282 283 281 280 278
288 285 284 286 288 289 287 285 285 285 282 281 280 282 280 277 276 275 276 279 280 280 282 282 282 284 285 285 284 283 281 280 281 282 282 282 282 282 281 281 280 281 281
292 292 288 289 292 292 289 287 285 284 284 285 284 287 287 284 279 276 279 279 280 280 281 283 284 285 285 285 284 285 284 282 281 283 282 283 283 281 279 278 279 284 285
292 292 292 294 294 293 292 288 286 286 283 284 287 288 285 284 281 277 275 278 279 280 282 284 286 285 286 287 284 286 285 284 284 285 283 282 280 278 279 279 280 283 285
298 297 295 297 297 295 293 291 290 289 284 284 285 285 284 284 282 282 279 280 281 282 283 285 287 285 285 287 285 285 285 285 286 287 284 281 280 278 278 279 282 281 284
300 300 299 299 298 296 292 291 290 290 288 286 285 285 285 284 283 281 281 278 281 281 281 284 286 288 285 285 285 284 285 286 287 287 287 284 283 282 282 281 283 283 287
300 300 301 301 299 298 294 291 291 292 292 290 289 287 285 284 282 279 278 276 279 281 282 284 286 288 286 283 283 286 287 285 286 288 288 287 283 282 283 283 280 281 284
301 302 301 301 299 298 296 294 293 291 291 291 287 284 284 284 281 280 279 281 282 281 282 283 284 287 285 283 283 285 286 285 284 285 287 286 285 283 283 283 281 283 287
302 302 301 300 300 299 297 296 294 292 290 290 289 284 283 281 280 278 279 281 283 281 280 281 282 285 286 284 284 284 283 284 283 283 285 286 285 285 286 285 283 283 284
302 302 301 298 297 299 299 297 294 291 290 288 288 284 283 284 284 278 278 279 282 282 280 278 282 285 286 285 283 283 283 283 283 284 285 286 286 286 287 286 284 283 283
302 303 300 297 296 297 297 296 294 291 288 287 286 285 284 285 286 285 280 280 281 281 279 279 282 284 285 283 280 281 281 280 283 284 285 286 287 288 287 286 285 285 284
303 301 298 297 296 295 293 293 292 290 290 287 285 285 285 284 283 284 282 279 280 280 281 278 277 279 281 281 277 278 279 280 282 286 288 287 286 286 287 286 285 285 285
302 300 297 296 296 293 291 291 291 290 289 288 286 286 286 284 282 281 281 282 279 279 280 278 277 278 279 280 279 278 278 279 281 283 284 285 287 287 287 286 285 285 284
301 298 297 296 293 291 290 291 292 291 289 287 288 288 287 285 283 280 281 282 280 280 282 283 282 280 279 278 278 280 281 280 280 281 281 282 283 285 286 285 285 284 284
298 296 296 295 293 292 291 291 293 293 291 289 289 289 288 285 284 282 281 282 281 280 282 282 281 281 282 280 280 281 281 280 281 280 280 281 283 285 285 285 285 284 284
Height
5879 5878 5879 5879 5878 5878 5879 5878 5878 5878 5878 5878 5877 5877 5877 5876 5876 5876 5876 5876 5876 5876 5876 5876 5875 5875 5875 5875 5875 5874 5874 5874 5874 5874 5874 5874 5874 5874 5874 5874 5875 5875 5876
5878 5878 5878 5878 5878 5878 5878 5878 5878 5878 5878 5877 5877 5877 5876 5876 5876 5876 5876 5876 5876 5875 5875 5875 5875 5875 5875 5874 5874 5874 5873 5873 5873 5873 5873 5873 5873 5873 5873 5874 5874 5874 5875
5878 5878 5878 5877 5877 5878 5878 5877 5877 5877 5877 5877 5876 5876 5876 5875 5875 5875 5875 5875 5875 5875 5875 5875 5874 5874 5874 5874 5873 5873 5873 5873 5872 5872 5872 5872 5872 5872 5872 5872 5873 5873 5874
5877 5877 5877 5877 5877 5877 5877 5877 5876 5876 5876 5876 5875 5875 5875 5874 5874 5874 5874 5874 5874 5874 5874 5874 5874 5873 5873 5873 5872 5872 5872 5871 5871 5871 5871 5870 5870 5870 5871 5871 5871 5872 5872
5876 5876 5876 5876 5876 5876 5876 5876 5875 5875 5875 5874 5874 5874 5873 5873 5873 5873 5873 5873 5873 5872 5872 5872 5872 5872 5872 5872 5871 5871 5870 5870 5870 5870 5869 5869 5869 5869 5869 5869 5870 5870 5870
5875 5875 5875 5875 5875 5875 5874 5874 5874 5874 5874 5873 5873 5872 5872 5872 5872 5872 5872 5872 5871 5871 5871 5871 5871 5871 5870 5870 5870 5869 5869 5868 5868 5868 5868 5868 5867 5867 5867 5868 5868 5868 5868
5874 5874 5874 5874 5874 5873 5873 5873 5872 5872 5872 5872 5871 5871 5871 5871 5871 5871 5870 5870 5870 5870 5869 5869 5869 5869 5869 5868 5868 5867 5867 5867 5866 5866 5866 5866 5866 5866 5866 5866 5866 5866 5866
5873 5873 5872 5872 5872 5872 5872 5871 5871 5871 5871 5870 5870 5870 5870 5869 5869 5869 5869 5868 5868 5868 5868 5867 5867 5867 5867 5866 5866 5865 5865 5865 5865 5865 5864 5864 5864 5864 5864 5864 5864 5864 5864
5871 5871 5871 5870 5870 5870 5870 5870 5869 5869 5869 5869 5868 5868 5868 5868 5867 5867 5867 5866 5866 5866 5866 5865 5865 5865 5865 5864 5864 5864 5863 5863 5863 5863 5863 5862 5862 5862 5862 5862 5862 5862 5862
5869 5869 5869 5869 5869 5868 5868 5868 5867 5867 5867 5866 5866 5866 5866 5865 5865 5865 5865 5865 5865 5864 5864 5864 5863 5863 5863 5863 5862 5862 5862 5861 5861 5861 5861 5860 5860 5860 5860 5859 5859 5859 5859
5867 5867 5867 5867 5867 5866 5866 5866 5865 5865 5865 5864 5864 5864 5863 5863 5863 5863 5863 5863 5863 5862 5862 5862 5862 5861 5861 5861 5861 5860 5860 5859 5859 5859 5859 5858 5858 5858 5858 5857 5857 5857 5857
5866 5865 5865 5865 5865 5864 5864 5863 5863 5863 5862 5862 5862 5861 5861 5861 5861 5861 5861 5861 5861 5860 5860 5860 5860 5860 5859 5859 5859 5858 5858 5858 5857 5857 5857 5857 5856 5856 5856 5855 5855 5855 5855
5864 5864 5863 5863 5862 5862 5862 5861 5861 5860 5860 5860 5859 5859 5859 5859 5859 5859 5859 5859 5858 5858 5858 5858 5858 5857 5857 5857 5856 5856 5856 5855 5855 5855 5855 5854 5854 5854 5854 5853 5853 5853 5852
5862 5862 5861 5861 5860 5860 5859 5859 5858 5858 5858 5857 5857 5856 5856 5857 5857 5857 5857 5857 5857 5856 5856 5856 5855 5855 5855 5854 5854 5854 5854 5853 5853 5853 5852 5852 5852 5852 5852 5851 5851 5850 5850
5860 5860 5859 5859 5858 5857 5857 5856 5856 5855 5855 5855 5854 5854 5854 5854 5854 5854 5854 5854 5854 5854 5854 5854 5853 5853 5853 5852 5852 5851 5851 5851 5850 5850 5850 5850 5849 5849 5849 5849 5849 5848 5848
5858 5857 5856 5856 5855 5855 5854 5854 5853 5853 5852 5852 5852 5852 5851 5851 5852 5851 5852 5852 5852 5851 5851 5851 5851 5850 5850 5850 5849 5849 5849 5848 5848 5848 5847 5847 5847 5847 5847 5847 5847 5846 5846
5855 5855 5854 5853 5853 5852 5851 5851 5850 5850 5849 5849 5849 5849 5849 5849 5849 5849 5849 5849 5849 5848 5848 5848 5848 5848 5848 5847 5847 5846 5846 5846 5845 5845 5845 5844 5844 5844 5844 5844 5844 5844 5844
5853 5852 5851 5851 5850 5849 5849 5848 5847 5847 5847 5846 5846 5846 5846 5846 5846 5846 5846 5846 5846 5846 5845 5845 5845 5845 5845 5845 5844 5844 5843 5843 5843 5842 5842 5842 5842 5841 5841 5841 5841 5841 5841
5851 5850 5849 5848 5847 5846 5846 5845 5844 5844 5844 5843 5843 5843 5843 5843 5843 5843 5843 5843 5843 5843 5842 5842 5842 5841 5841 5841 5841 5841 5841 5840 5840 5840 5839 5839 5839 5839 5839 5839 5838 5838 5838
5848 5847 5846 5845 5844 5844 5842 5842 5841 5841 5841 5840 5840 5840 5840 5840 5839 5839 5839 5839 5839 5839 5839 5838 5838 5838 5838 5838 5838 5838 5838 5837 5837 5837 5837 5836 5836 5836 5836 5836 5836 5835 5835
5845 5844 5843 5842 5842 5841 5840 5839 5838 5838 5838 5837 5837 5837 5836 5836 5836 5836 5836 5836 5835 5835 5835 5835 5835 5835 5834 5834 5835 5835 5835 5834 5834 5834 5834 5833 5833 5833 5833 5833 5832 5832 5832
5842 5841 5840 5839 5838 5838 5837 5836 5835 5835 5834 5834 5834 5833 5833 5832 5832 5832 5832 5832 5831 5831 5831 5831 5831 5831 5831 5831 5831 5831 5831 5832 5831 5831 5830 5830 5830 5830 5829 5829 5829 5829 5828
5840 5838 5837 5836 5835 5834 5833 5833 5832 5831 5831 5830 5830 5830 5829 5829 5828 5828 5828 5828 5827 5827 5827 5827 5828 5828 5828 5827 5827 5828 5828 5828 5827 5827 5827 5827 5827 5826 5826 5826 5825 5825 5825
5836 5835 5834 5832 5831 5830 5830 5829 5828 5828 5827 5827 5826 5826 5825 5825 5824 5824 5824 5824 5824 5824 5823 5823 5824 5824 5824 5824 5823 5823 5824 5824 5824 5824 5824 5823 5823 5823 5822 5822 5822 5821 5821
5833 5831 5830 5829 5828 5827 5826 5825 5824 5823 5823 5822 5822 5822 5821 5820 5820 5820 5820 5820 5820 5820 5820 5820 5820 5820 5820 5820 5820 5819 5820 5820 5820 5820 5820 5819 5819 5819 5818 5818 5818 5817 5817
5829 5828 5826 5825 5824 5823 5822 5821 5820 5819 5819 5818 5818 5817 5817 5816 5816 5816 5816 5816 5816 5816 5816 5816 5816 5816 5815 5815 5815 5816 5815 5815 5815 5815 5816 5815 5815 5815 5814 5814 5813 5813 5813